| time (UTC) | temp F | wind direction | speed knots | gust knots | rain 1hr in | rain 24hr in | rain mn in | humidity % | barometer mb |
| 20260505034526 | 55 | 191 | 1.7 | 5.2 | 0.00 | 0.00 | 0.00 | 61 | 1010.7 |
| 20260505033026 | 55 | 198 | 0.0 | 1.7 | 0.00 | 0.00 | 0.00 | 61 | 1010.6 |
| 20260505031527 | 56 | 157 | 0.9 | 5.2 | 0.00 | 0.00 | 0.00 | 59 | 1010.6 |
| 20260505030024 | 56 | 174 | 0.9 | 3.5 | 0.00 | 0.00 | 0.00 | 58 | 1010.6 |
| 20260505024524 | 57 | 186 | 0.9 | 3.5 | 0.00 | 0.00 | 0.00 | 57 | 1010.7 |
| 20260505023028 | 57 | 179 | 0.0 | 3.5 | 0.00 | 0.00 | 0.00 | 56 | 1010.7 |
| 20260505021526 | 58 | 212 | 0.9 | 3.5 | 0.00 | 0.00 | 0.00 | 54 | 1010.8 |
| 20260505020035 | 58 | 178 | 0.9 | 7.0 | 0.00 | 0.00 | 0.00 | 53 | 1010.7 |
| 20260505014533 | 58 | 202 | 0.0 | 5.2 | 0.00 | 0.00 | 0.00 | 52 | 1010.6 |
| 20260505013007 | 59 | 176 | 0.0 | 2.6 | 0.00 | 0.00 | 0.00 | 51 | 1010.4 |
| 20260505011512 | 60 | 196 | 0.0 | 5.2 | 0.00 | 0.00 | 0.00 | 50 | 1010.1 |
| 20260505010016 | 60 | 192 | 0.9 | 5.2 | 0.00 | 0.00 | 0.00 | 49 | 1009.8 |
| 20260505004529 | 61 | 148 | 1.7 | 4.3 | 0.00 | 0.00 | 0.00 | 48 | 1009.5 |
| 20260505003047 | 61 | 244 | 0.9 | 5.2 | 0.00 | 0.00 | 0.00 | 47 | 1009.1 |
| 20260505001507 | 62 | 192 | 0.9 | 6.1 | 0.00 | 0.00 | 0.00 | 47 | 1008.7 |
| 20260505000031 | 63 | 194 | 1.7 | 4.3 | 0.00 | 0.00 | 0.00 | 45 | 1008.5 |
| 20260504234518 | 64 | 180 | 0.9 | 6.1 | 0.00 | 0.00 | 0.00 | 43 | 1008.1 |
| 20260504233024 | 65 | 178 | 3.5 | 7.8 | 0.00 | 0.00 | 0.00 | 41 | 1007.8 |
| 20260504231527 | 65 | 160 | 1.7 | 9.6 | 0.00 | 0.00 | 0.00 | 40 | 1007.6 |
| 20260504230027 | 67 | 206 | 1.7 | 7.0 | 0.00 | 0.00 | 0.00 | 38 | 1007.2 |
| 20260504224519 | 69 | 205 | 0.9 | 5.2 | 0.00 | 0.00 | 0.00 | 33 | 1006.8 |
| 20260504223020 | 69 | 183 | 2.6 | 6.1 | 0.00 | 0.00 | 0.00 | 31 | 1006.7 |
| 20260504221526 | 70 | 200 | 0.9 | 7.0 | 0.00 | 0.00 | 0.00 | 31 | 1006.8 |
| 20260504220026 | 70 | 190 | 1.7 | 6.1 | 0.00 | 0.00 | 0.00 | 31 | 1006.9 |
| 20260504214517 | 71 | 177 | 3.5 | 7.8 | 0.00 | 0.00 | 0.00 | 29 | 1006.8 |
| 20260504213026 | 71 | 205 | 1.7 | 5.2 | 0.00 | 0.00 | 0.00 | 30 | 1006.9 |
| 20260504211534 | 71 | 200 | 2.6 | 7.8 | 0.00 | 0.00 | 0.00 | 30 | 1006.9 |
| 20260504210028 | 71 | 204 | 1.7 | 6.1 | 0.00 | 0.00 | 0.00 | 31 | 1007.0 |
| 20260504204515 | 71 | 155 | 1.7 | 6.1 | 0.00 | 0.00 | 0.00 | 30 | 1006.9 |
| 20260504203021 | 70 | 180 | 1.7 | 7.0 | 0.00 | 0.00 | 0.00 | 29 | 1007.1 |
| 20260504201520 | 70 | 167 | 0.9 | 7.0 | 0.00 | 0.00 | 0.00 | 29 | 1007.0 |
| 20260504200026 | 71 | 216 | 2.6 | 9.6 | 0.00 | 0.00 | 0.00 | 27 | 1007.1 |
| 20260504194527 | 72 | 167 | 2.6 | 6.1 | 0.00 | 0.00 | 0.00 | 27 | 1007.2 |
| 20260504193027 | 73 | 139 | 2.6 | 6.1 | 0.00 | 0.00 | 0.00 | 26 | 1007.2 |
| 20260504191522 | 72 | 191 | 1.7 | 8.7 | 0.00 | 0.00 | 0.00 | 30 | 1007.1 |
| 20260504190024 | 72 | 217 | 2.6 | 13.0 | 0.00 | 0.00 | 0.00 | 27 | 1007.2 |
| 20260504184542 | 72 | 150 | 1.7 | 6.1 | 0.00 | 0.00 | 0.00 | 28 | 1007.4 |
| 20260504183027 | 71 | 219 | 2.6 | 9.6 | 0.00 | 0.00 | 0.00 | 29 | 1007.5 |
| 20260504181518 | 71 | 160 | 4.3 | 8.7 | 0.00 | 0.00 | 0.00 | 28 | 1007.6 |
| 20260504180024 | 70 | 291 | 1.7 | 10.4 | 0.00 | 0.00 | 0.00 | 30 | 1007.5 |
| 20260504174524 | 70 | 345 | 3.5 | 9.6 | 0.00 | 0.00 | 0.00 | 29 | 1007.6 |
| 20260504173028 | 69 | 160 | 3.5 | 13.9 | 0.00 | 0.00 | 0.00 | 30 | 1007.9 |
| 20260504171525 | 69 | 210 | 2.6 | 12.2 | 0.00 | 0.00 | 0.00 | 29 | 1008.0 |
| 20260504081520 | 43 | 146 | 0.0 | 0.0 | 0.00 | 0.02 | 0.00 | 64 | 1010.7 |
| 20260504050024 | 40 | 124 | 0.0 | 1.7 | 0.00 | 0.02 | 0.00 | 62 | 1010.5 |
| 20260504044506 | 39 | 124 | 0.0 | 1.7 | 0.00 | 0.02 | 0.00 | 65 | 1010.7 |
| 20260504043006 | 39 | 153 | 0.0 | 0.9 | 0.00 | 0.02 | 0.00 | 65 | 1010.4 |
| 20260504041532 | 39 | 153 | 0.0 | 0.9 | 0.00 | 0.02 | 0.00 | 64 | 1010.4 |
| 20260504040025 | 39 | 153 | 0.0 | 0.9 | 0.00 | 0.02 | 0.00 | 65 | 1010.3 |